Location: Newark
(58.9986°N, 38.5006°E)
Time: 14:27:50
(UTC+00:00)

N. Korean satellite - Pass Details

Date: 12 December 2019
Orbit: 454 x 507 km, 97.2° (Epoch: 28 January)

Event Time Altitude Azimuth Distance (km) Brightness Sun altitude
Rises 14:48:42 0° 186° (S) 2,602 10.6 -15.8°
Reaches altitude 10° 14:50:55 10° 196° (SSW) 1,718 9.8 -16.1°
Maximum altitude 14:54:20 35° 263° (W) 829 8.4 -16.5°
Drops below altitude 10° 14:57:46 10° 331° (NNW) 1,711 9.5 -16.9°
Sets 14:59:58 0° 341° (NNW) 2,591 10.3 -17.2°
